sat.trackr.live / text

‹ back to catalog

STARLINK-34431

NORAD 64353 · 2025-126K

PAYLOAD ACTIVE UNKNOWN

§ Identity

Operator
Country
US
Launch date
2025-06-13
Launch site
AFWTR
Launch vehicle
Mass (kg)
RCS (m²)

Purposes: comms

External: N2YO · Heavens-Above · Gunter

§ Orbital elements

Epoch: 2026-09-20T09:13:52.801824Z

Period
94.14 min
Inclination
70.0002°
Eccentricity
0.0003489
Mean motion
15.29586205 rev/d
Perigee alt
474.7 km
Apogee alt
479.4 km
Semi-major
6,855.2 km
B*
3.5368e-4
RAAN
261.2365°
Arg perigee
270.8383°
Mean anomaly
89.2392°
Rev number
6,990

§ Raw data

STARLINK-344311 64353U 25126K   26263.38463891  .00010055  00000+0  35368-3 0  99962 64353  70.0002 261.2365 0003489 270.8383  89.2392 15.29586205 69902

JSON: /api/v1/satellites/64353 · /tle

For live sub-satellite position, see the globe view (requires WebGL).

§ Visibility from observer

Set your observer location to see the next 7 days of passes ≥ 10°. The values pass through the URL so the page stays shareable.

No JS? Fill the form by hand. The geolocation button needs JavaScript.